Weather History for Poplar Bluff, MO

Change the Weather History Date:

Friday, May 3, 2013

  Actual Average Record
Temperature  
Mean Temperature 48 °F -  
Max Temperature 54 °F 73 °F 99 °F (1955)
Min Temperature 41 °F 49 °F 34 °F (1967)
Degree Days  
Heating Degree Days 17    
Moisture  
Dew Point 40 °F    
Average Humidity 87    
Maximum Humidity 93    
Minimum Humidity 81    
Precipitation  
Precipitation 2.23 in - - ()
Sea Level Pressure  
Sea Level Pressure 29.91 in    
Wind  
Wind Speed 10 mph (WNW)    
Max Wind Speed 14 mph    
Max Gust Speed 18 mph    
Visibility 6 miles    
Events Rain    
Averages and records for this station are not official NWS values.
T = Trace of Precipitation, MM = Missing Value Source: NWS Daily Summary

Daily Weather History Graph

Daily Weather History Graph

Search for Another Location

Airport:

Trip Planner

Search our weather history database for the weather conditions in past years. The results will help you decide how hot, cold, wet, or windy it might be!

Date:

Astronomy

May. 03, 2013 Rise Set
Actual Time 6:04 AM CDT 7:51 PM CDT
Civil Twilight 5:36 AM CDT 8:19 PM CDT
Nautical Twilight 5:03 AM CDT 8:53 PM CDT
Astronomical Twilight 4:27 AM CDT 9:30 PM CDT
Moon 2:19 AM CDT (5/3) 1:55 PM CDT (5/3)
Length of Visible Light 14h 42m
Length of Day
13h 47m
Last Quarter, 37% of the Moon is Illuminated
May 3
Last Quarter
May 9
New
May 17
First Quarter
May 24
Full
May 31
Last Quarter

Hourly Weather History & Observations

Time (CDT) Temp. Windchill Dew Point Humidity Pressure Visibility Wind Dir Wind Speed Gust Speed Precip Events Conditions
12:20 AM 55.4 °F - 51.8 °F 88% 30.02 in 10.0 mi NNE 12.7 mph - 0.00 in Rain Light Rain
12:53 AM 54.0 °F - 51.1 °F 90% 30.01 in 10.0 mi North 10.4 mph - 0.01 in   Overcast
1:46 AM 53.6 °F - 48.2 °F 82% 30.01 in 10.0 mi North 11.5 mph - 0.00 in   Overcast
1:53 AM 53.1 °F - 48.9 °F 86% 30.00 in 10.0 mi NNW 12.7 mph - 0.00 in   Overcast
2:53 AM 51.1 °F - 46.9 °F 86% 29.98 in 10.0 mi NNW 12.7 mph - 0.00 in   Overcast
3:53 AM 50.0 °F - 46.0 °F 86% 29.96 in 10.0 mi NNW 10.4 mph - N/A   Overcast
4:53 AM 48.0 °F - 45.0 °F 89% 29.94 in 6.0 mi NNW 12.7 mph - 0.03 in Rain Rain
5:53 AM 46.9 °F - 44.1 °F 90% 29.94 in 6.0 mi North 10.4 mph - 0.03 in Rain Rain
6:24 AM 46.4 °F 41.1 °F 42.8 °F 87% 29.95 in 6.0 mi NNW 11.5 mph - 0.06 in Rain Rain
6:53 AM 46.0 °F 40.6 °F 42.1 °F 86% 29.95 in 5.0 mi NNW 11.5 mph - 0.11 in Rain Light Rain
7:00 AM 46.4 °F 41.9 °F 42.8 °F 87% 29.95 in 8.0 mi NNW 9.2 mph - 0.00 in Rain Light Rain
7:18 AM 46.4 °F 41.5 °F 42.8 °F 87% 29.95 in 7.0 mi NW 10.4 mph - 0.03 in Rain Light Rain
7:38 AM 44.6 °F 40.2 °F 42.8 °F 93% 29.94 in 2.5 mi NW 8.1 mph - 0.07 in Rain Light Rain
7:50 AM 44.6 °F 38.1 °F 42.8 °F 93% 29.94 in 3.0 mi North 13.8 mph - 0.12 in Rain Rain
7:53 AM 45.0 °F 38.5 °F 42.1 °F 90% 29.94 in 5.0 mi NNW 13.8 mph - 0.12 in Rain Light Rain
8:10 AM 44.6 °F 39.2 °F 41.0 °F 87% 29.94 in 4.0 mi NNW 10.4 mph - 0.05 in Rain Rain
8:23 AM 44.6 °F 39.7 °F 41.0 °F 87% 29.93 in 2.5 mi NW 9.2 mph - 0.09 in Rain Heavy Rain
8:53 AM 44.1 °F 39.5 °F 41.0 °F 89% 29.94 in 2.0 mi NW 8.1 mph - 0.25 in Rain Rain
9:10 AM 44.6 °F 39.7 °F 39.2 °F 81% 29.93 in 3.0 mi NW 9.2 mph - 0.06 in Rain Rain
9:53 AM 43.0 °F 37.7 °F 39.0 °F 86% 29.92 in 4.0 mi NW 9.2 mph - 0.20 in Rain Rain
10:27 AM 42.8 °F 37.0 °F 39.2 °F 87% 29.93 in 3.0 mi NW 10.4 mph - 0.09 in Rain Rain
10:53 AM 42.1 °F 36.1 °F 39.0 °F 89% 29.93 in 5.0 mi NW 10.4 mph - 0.16 in Rain Rain
11:01 AM 42.8 °F 37.0 °F 39.2 °F 87% 29.92 in 3.0 mi NW 10.4 mph - 0.03 in Rain Heavy Rain
11:13 AM 42.8 °F 36.2 °F 39.2 °F 87% 29.92 in 2.0 mi NW 12.7 mph 18.4 mph 0.11 in Rain Heavy Rain
11:25 AM 42.8 °F 37.5 °F 37.4 °F 81% 29.92 in 4.0 mi NW 9.2 mph 18.4 mph 0.14 in Rain Rain
11:50 AM 42.8 °F 36.6 °F 39.2 °F 87% 29.90 in 2.5 mi North 11.5 mph - 0.26 in Rain Heavy Rain
11:53 AM 42.1 °F 36.6 °F 39.0 °F 89% 29.91 in 2.5 mi NNW 9.2 mph - 0.28 in Rain Heavy Rain
12:00 PM 42.8 °F 37.5 °F 39.2 °F 87% 29.91 in 4.0 mi NNW 9.2 mph - 0.02 in Rain Rain
12:25 PM 42.8 °F 38.6 °F 39.2 °F 87% 29.91 in 4.0 mi NW 6.9 mph - 0.08 in Rain Rain
12:32 PM 42.8 °F 39.3 °F 39.2 °F 87% 29.90 in 5.0 mi NNW 5.8 mph - 0.09 in Rain Light Rain
12:45 PM 42.8 °F 38.0 °F 39.2 °F 87% 29.90 in 2.5 mi NW 8.1 mph - 0.13 in Rain Rain
12:53 PM 43.0 °F 39.5 °F 39.9 °F 89% 29.90 in 3.0 mi NW 5.8 mph - 0.15 in Rain Light Rain
1:08 PM 44.6 °F 40.7 °F 39.2 °F 81% 29.89 in 6.0 mi NW 6.9 mph - 0.02 in Rain Light Rain
1:44 PM 42.8 °F 38.0 °F 39.2 °F 87% 29.88 in 2.5 mi NW 8.1 mph - 0.10 in Rain Rain
1:53 PM 44.1 °F 39.5 °F 39.9 °F 85% 29.89 in 5.0 mi NW 8.1 mph - 0.12 in Rain Light Rain
2:10 PM 44.6 °F 39.7 °F 41.0 °F 87% 29.86 in 6.0 mi WNW 9.2 mph - 0.01 in Rain Rain
2:48 PM 42.8 °F 38.6 °F 39.2 °F 87% 29.87 in 2.5 mi WNW 6.9 mph - 0.10 in Rain Rain
2:49 PM 43.0 °F 38.8 °F 39.9 °F 89% 29.88 in 2.0 mi WNW 6.9 mph - 0.10 in Rain Rain
2:59 PM 44.6 °F 39.7 °F 39.2 °F 81% 29.86 in 2.5 mi WNW 9.2 mph - 0.05 in Rain Rain
3:02 PM 44.6 °F 39.7 °F 39.2 °F 81% 29.86 in 3.0 mi WNW 9.2 mph - 0.06 in Rain Rain
3:36 PM 42.8 °F 36.6 °F 39.2 °F 87% 29.86 in 2.0 mi WNW 11.5 mph - 0.15 in Rain Heavy Rain
3:43 PM 42.8 °F 38.0 °F 39.2 °F 87% 29.86 in 3.0 mi NW 8.1 mph - 0.17 in Rain Rain
3:51 PM 42.8 °F 38.6 °F 39.2 °F 87% 29.86 in 2.5 mi WNW 6.9 mph - 0.20 in Rain Rain
3:53 PM 43.0 °F 37.2 °F 39.9 °F 89% 29.86 in 2.5 mi NW 10.4 mph - 0.21 in Rain Rain
4:16 PM 42.8 °F 37.5 °F 39.2 °F 87% 29.86 in 4.0 mi West 9.2 mph - 0.07 in Rain Light Rain
4:28 PM 42.8 °F 38.0 °F 39.2 °F 87% 29.84 in 3.0 mi WNW 8.1 mph - 0.11 in Rain Light Rain
4:37 PM 42.8 °F 36.2 °F 39.2 °F 87% 29.83 in 3.0 mi WNW 12.7 mph - 0.13 in Rain Rain
4:53 PM 43.0 °F 37.7 °F 39.9 °F 89% 29.90 in 4.0 mi WSW 9.2 mph - 0.18 in Rain Rain
5:06 PM 42.8 °F 38.0 °F 39.2 °F 87% 29.88 in 2.5 mi West 8.1 mph - 0.03 in Rain Heavy Rain
5:17 PM 42.8 °F 39.3 °F 39.2 °F 87% 29.89 in 3.0 mi West 5.8 mph - 0.09 in Rain Rain
5:48 PM 42.8 °F 38.0 °F 39.2 °F 87% 29.89 in 3.0 mi West 8.1 mph - 0.17 in Rain Rain
5:53 PM 43.0 °F 38.8 °F 39.9 °F 89% 29.90 in 4.0 mi West 6.9 mph - 0.18 in Rain Rain
6:48 PM 42.8 °F 41.1 °F 39.2 °F 87% 29.90 in 2.5 mi West 3.5 mph - 0.08 in Rain Light Rain
6:49 PM 42.8 °F 41.1 °F 39.2 °F 87% 29.90 in 3.0 mi West 3.5 mph - 0.08 in Rain Light Rain
6:53 PM 43.0 °F 40.3 °F 39.9 °F 89% 29.91 in 7.0 mi West 4.6 mph - 0.09 in Rain Light Rain
7:04 PM 42.8 °F 39.3 °F 39.2 °F 87% 29.90 in 10.0 mi West 5.8 mph - 0.00 in Rain Light Rain
7:27 PM 42.8 °F 39.3 °F 39.2 °F 87% 29.90 in 10.0 mi WSW 5.8 mph - 0.00 in Rain Light Rain
7:39 PM 42.8 °F 38.6 °F 39.2 °F 87% 29.90 in 10.0 mi West 6.9 mph - 0.00 in   Overcast
7:53 PM 43.0 °F 41.3 °F 39.9 °F 89% 29.91 in 10.0 mi West 3.5 mph - 0.00 in   Overcast
7:59 PM 42.8 °F 39.3 °F 39.2 °F 87% 29.90 in 10.0 mi West 5.8 mph - N/A   Overcast
8:53 PM 44.1 °F 40.8 °F 39.9 °F 85% 29.93 in 10.0 mi SW 5.8 mph - N/A   Overcast
9:43 PM 44.6 °F 40.7 °F 39.2 °F 81% 29.92 in 7.0 mi WSW 6.9 mph - N/A   Overcast
9:53 PM 43.0 °F 38.2 °F 39.0 °F 86% 29.94 in 4.0 mi West 8.1 mph - 0.00 in Rain Light Rain
10:03 PM 42.8 °F 39.3 °F 39.2 °F 87% 29.93 in 4.0 mi West 5.8 mph - 0.00 in Rain Light Rain
10:53 PM 42.1 °F 37.1 °F 37.9 °F 85% 29.94 in 10.0 mi WSW 8.1 mph - 0.01 in   Overcast
11:09 PM 42.8 °F 38.0 °F 37.4 °F 81% 29.92 in 10.0 mi WSW 8.1 mph - N/A   Overcast
11:16 PM 42.8 °F 38.6 °F 37.4 °F 81% 29.92 in 10.0 mi WSW 6.9 mph - N/A   Overcast
11:24 PM 42.8 °F 39.3 °F 37.4 °F 81% 29.91 in 10.0 mi WSW 5.8 mph - N/A   Overcast
11:39 PM 41.0 °F 38.0 °F 37.4 °F 87% 29.92 in 10.0 mi WSW 4.6 mph - N/A   Overcast
11:50 PM 41.0 °F 39.0 °F 37.4 °F 87% 29.92 in 10.0 mi SW 3.5 mph - N/A   Overcast
11:53 PM 41.0 °F 38.0 °F 37.9 °F 89% 29.92 in 10.0 mi SW 4.6 mph - N/A   Overcast